{"data":{"norad_id":44353,"epoch":"2026-05-25T00:29:16.315872Z","epoch_age_seconds":66559,"freshness":"FRESH","line1":"1 44353U 19036Q   26145.02032773  .00002035  00000+0  14930-3 0  9999","line2":"2 44353  23.9965 125.7992 0001137 173.3272 186.7244 14.96393120378342","mean_motion":14.9639312,"eccentricity":0.0001137,"inclination_deg":23.9965,"raan_deg":125.7992,"arg_perigee_deg":173.3272,"mean_anomaly_deg":186.7244,"bstar":0.0001493,"rev_number":37834,"period_min":96.2313967335,"perigee_km":577.26107360921,"apogee_km":578.84291098606,"semimajor_km":6956.1889922976,"source":"CELESTRAK","updated_at":"2026-05-25T13:37:55.971193Z"}}